Time,TemperatureF,DewpointF,PressureIn,WindDirection,WindDirectionDegrees,WindSpeedMPH,WindSpeedGustMPH,Humidity,HourlyPrecipIn,Conditions,Clouds,dailyrainin,SoftwareType,DateUTC
2013-06-17 00:00:00,69.0,67.8,29.92,SE,145,0.0,0.0,96,0.00,,,0.08,Wunderground v.1.15,2013-06-17 04:00:00,
2013-06-17 00:05:00,69.0,67.8,29.92,SE,146,0.0,0.0,96,0.00,,,0.00,Wunderground v.1.15,2013-06-17 04:05:00,
2013-06-17 00:15:00,69.1,67.6,29.92,SE,146,0.0,0.0,95,0.00,,,0.00,Wunderground v.1.15,2013-06-17 04:15:00,
2013-06-17 00:20:00,69.2,67.4,29.92,SE,145,0.0,0.0,94,0.00,,,0.00,Wunderground v.1.15,2013-06-17 04:20:00,
2013-06-17 00:30:00,69.2,67.4,29.92,SE,146,0.0,0.0,94,0.00,,,0.00,Wunderground v.1.15,2013-06-17 04:30:00,
2013-06-17 00:35:00,69.2,67.7,29.92,SE,146,0.0,0.0,95,0.00,,,0.00,Wunderground v.1.15,2013-06-17 04:35:00,
2013-06-17 00:45:00,69.2,68.0,29.92,SE,146,0.0,0.0,96,0.00,,,0.00,Wunderground v.1.15,2013-06-17 04:45:00,
2013-06-17 00:50:00,69.2,68.0,29.93,SE,146,0.0,0.0,96,0.00,,,0.00,Wunderground v.1.15,2013-06-17 04:50:00,
2013-06-17 00:55:00,69.0,67.8,29.93,SE,146,0.0,0.0,96,0.00,,,0.00,Wunderground v.1.15,2013-06-17 04:55:00,
2013-06-17 01:00:00,68.8,67.6,29.93,SE,146,0.0,0.0,96,0.00,,,0.00,Wunderground v.1.15,2013-06-17 05:00:00,
2013-06-17 01:05:00,68.7,67.5,29.93,SE,146,0.0,0.0,96,0.00,,,0.00,Wunderground v.1.15,2013-06-17 05:05:00,
2013-06-17 01:15:00,68.9,68.0,29.92,SE,146,0.0,0.0,97,0.00,,,0.00,Wunderground v.1.15,2013-06-17 05:15:00,
2013-06-17 01:20:00,68.8,67.9,29.93,SE,146,0.0,0.0,97,0.00,,,0.00,Wunderground v.1.15,2013-06-17 05:20:00,
2013-06-17 01:30:00,68.7,67.5,29.92,SE,146,0.0,0.0,96,0.00,,,0.00,Wunderground v.1.15,2013-06-17 05:30:00,
2013-06-17 01:35:00,68.7,67.8,29.93,SE,146,0.0,0.0,97,0.00,,,0.00,Wunderground v.1.15,2013-06-17 05:35:00,
2013-06-17 01:45:00,68.7,67.8,29.93,SE,146,0.0,0.0,97,0.00,,,0.00,Wunderground v.1.15,2013-06-17 05:45:00,
2013-06-17 01:50:00,68.7,67.8,29.93,SE,146,0.0,0.0,97,0.00,,,0.00,Wunderground v.1.15,2013-06-17 05:50:00,
2013-06-17 02:00:00,68.7,67.8,29.92,SE,146,0.0,0.0,97,0.00,,,0.00,Wunderground v.1.15,2013-06-17 06:00:00,
2013-06-17 02:05:00,68.7,67.8,29.92,SE,146,0.0,0.0,97,0.00,,,0.00,Wunderground v.1.15,2013-06-17 06:05:00,
2013-06-17 02:15:00,68.5,67.6,29.92,SE,146,0.0,0.0,97,0.00,,,0.00,Wunderground v.1.15,2013-06-17 06:15:00,
2013-06-17 02:20:00,68.6,67.7,29.92,SE,146,0.0,0.0,97,0.00,,,0.00,Wunderground v.1.15,2013-06-17 06:20:00,
2013-06-17 02:25:00,68.6,67.7,29.92,SE,146,0.0,0.0,97,0.00,,,0.00,Wunderground v.1.15,2013-06-17 06:25:00,
2013-06-17 02:35:00,68.6,67.7,29.92,SE,146,0.0,0.0,97,0.00,,,0.00,Wunderground v.1.15,2013-06-17 06:35:00,
2013-06-17 02:40:00,68.5,67.6,29.92,SE,146,0.0,0.0,97,0.00,,,0.00,Wunderground v.1.15,2013-06-17 06:40:00,
2013-06-17 02:50:00,68.3,67.4,29.91,SE,146,0.0,0.0,97,0.00,,,0.00,Wunderground v.1.15,2013-06-17 06:50:00,
2013-06-17 03:00:00,68.3,67.4,29.91,SE,146,0.0,0.0,97,0.00,,,0.00,Wunderground v.1.15,2013-06-17 07:00:00,
2013-06-17 03:05:00,68.2,67.3,29.91,SE,146,0.0,0.0,97,0.00,,,0.00,Wunderground v.1.15,2013-06-17 07:05:00,
2013-06-17 03:15:00,68.2,67.3,29.91,SE,146,0.0,1.0,97,0.00,,,0.00,Wunderground v.1.15,2013-06-17 07:15:00,
2013-06-17 03:25:00,68.1,67.2,29.91,SE,146,0.0,0.0,97,0.00,,,0.00,Wunderground v.1.15,2013-06-17 07:25:00,
2013-06-17 03:35:00,68.1,67.2,29.91,SE,146,0.0,0.0,97,0.00,,,0.00,Wunderground v.1.15,2013-06-17 07:35:00,
2013-06-17 03:40:00,68.2,67.3,29.91,SE,146,0.0,0.0,97,0.00,,,0.00,Wunderground v.1.15,2013-06-17 07:40:00,
2013-06-17 03:50:00,68.0,66.8,29.91,SE,146,0.0,0.0,96,0.00,,,0.00,Wunderground v.1.15,2013-06-17 07:50:00,
2013-06-17 03:55:00,68.0,66.8,29.91,SE,146,0.0,0.0,96,0.00,,,0.00,Wunderground v.1.15,2013-06-17 07:55:00,
2013-06-17 04:05:00,68.1,66.9,29.91,SE,146,0.0,0.0,96,0.00,,,0.00,Wunderground v.1.15,2013-06-17 08:05:00,
2013-06-17 04:15:00,68.2,67.0,29.92,SE,146,0.0,0.0,96,0.00,,,0.00,Wunderground v.1.15,2013-06-17 08:15:00,
2013-06-17 04:25:00,68.2,67.0,29.92,SE,146,0.0,0.0,96,0.00,,,0.00,Wunderground v.1.15,2013-06-17 08:25:00,
2013-06-17 04:35:00,68.1,66.6,29.92,SE,146,0.0,0.0,95,0.00,,,0.00,Wunderground v.1.15,2013-06-17 08:35:00,
2013-06-17 04:40:00,68.2,66.7,29.92,SE,145,0.0,0.0,95,0.00,,,0.00,Wunderground v.1.15,2013-06-17 08:40:00,
2013-06-17 04:50:00,68.4,66.6,29.92,SE,146,0.0,0.0,94,0.00,,,0.00,Wunderground v.1.15,2013-06-17 08:50:00,
2013-06-17 04:55:00,68.4,66.6,29.91,SE,146,0.0,1.0,94,0.00,,,0.00,Wunderground v.1.15,2013-06-17 08:55:00,
2013-06-17 05:05:00,68.4,66.6,29.92,SE,146,0.0,1.0,94,0.00,,,0.00,Wunderground v.1.15,2013-06-17 09:05:00,
2013-06-17 05:15:00,68.4,66.9,29.92,South,170,1.0,1.0,95,0.00,,,0.00,Wunderground v.1.15,2013-06-17 09:15:00,
2013-06-17 05:25:00,68.3,66.5,29.92,South,170,0.0,0.0,94,0.00,,,0.00,Wunderground v.1.15,2013-06-17 09:25:00,
2013-06-17 05:30:00,68.4,66.6,29.92,South,170,0.0,0.0,94,0.00,,,0.00,Wunderground v.1.15,2013-06-17 09:30:00,
2013-06-17 05:40:00,68.6,66.8,29.92,South,170,0.0,0.0,94,0.00,,,0.00,Wunderground v.1.15,2013-06-17 09:40:00,
2013-06-17 05:50:00,68.6,66.8,29.92,South,170,0.0,0.0,94,0.00,,,0.00,Wunderground v.1.15,2013-06-17 09:50:00,
2013-06-17 05:55:00,68.5,66.7,29.92,South,170,0.0,0.0,94,0.00,,,0.00,Wunderground v.1.15,2013-06-17 09:55:00,
2013-06-17 06:05:00,68.5,66.4,29.92,South,170,0.0,0.0,93,0.00,,,0.00,Wunderground v.1.15,2013-06-17 10:05:00,
2013-06-17 06:15:00,68.6,66.2,29.92,South,169,0.0,0.0,92,0.00,,,0.00,Wunderground v.1.15,2013-06-17 10:15:00,
2013-06-17 06:25:00,68.9,66.2,29.93,South,170,0.0,0.0,91,0.00,,,0.00,Wunderground v.1.15,2013-06-17 10:25:00,
2013-06-17 06:30:00,69.2,66.5,29.93,South,170,0.0,0.0,91,0.00,,,0.00,Wunderground v.1.15,2013-06-17 10:30:00,
2013-06-17 06:40:00,69.5,66.4,29.93,South,170,0.0,0.0,90,0.00,,,0.00,Wunderground v.1.15,2013-06-17 10:40:00,
2013-06-17 06:45:00,69.6,66.5,29.93,South,170,0.0,0.0,90,0.00,,,0.00,Wunderground v.1.15,2013-06-17 10:45:00,
2013-06-17 06:55:00,69.5,66.8,29.93,South,170,0.0,0.0,91,0.00,,,0.00,Wunderground v.1.15,2013-06-17 10:55:00,
2013-06-17 07:00:00,69.5,67.4,29.93,South,170,0.0,0.0,93,0.00,,,0.00,Wunderground v.1.15,2013-06-17 11:00:00,
2013-06-17 07:05:00,69.4,67.6,29.93,South,170,0.0,0.0,94,0.00,,,0.00,Wunderground v.1.15,2013-06-17 11:05:00,
2013-06-17 07:15:00,69.2,67.7,29.94,South,170,0.0,0.0,95,0.00,,,0.00,Wunderground v.1.15,2013-06-17 11:15:00,
2013-06-17 07:20:00,69.1,67.6,29.94,South,170,0.0,0.0,95,0.00,,,0.00,Wunderground v.1.15,2013-06-17 11:20:00,
2013-06-17 07:30:00,69.0,67.5,29.94,South,170,0.0,0.0,95,0.00,,,0.00,Wunderground v.1.15,2013-06-17 11:30:00,
2013-06-17 07:35:00,69.0,67.5,29.94,South,170,0.0,0.0,95,0.00,,,0.00,Wunderground v.1.15,2013-06-17 11:35:00,
2013-06-17 07:45:00,69.0,67.5,29.94,South,170,0.0,0.0,95,0.00,,,0.00,Wunderground v.1.15,2013-06-17 11:45:00,
2013-06-17 07:55:00,69.1,67.6,29.94,South,170,0.0,0.0,95,0.00,,,0.00,Wunderground v.1.15,2013-06-17 11:55:00,
2013-06-17 08:00:00,69.2,68.0,29.94,South,170,0.0,0.0,96,0.00,,,0.00,Wunderground v.1.15,2013-06-17 12:00:00,
2013-06-17 08:05:00,69.4,68.2,29.94,South,170,0.0,0.0,96,0.00,,,0.00,Wunderground v.1.15,2013-06-17 12:05:00,
2013-06-17 08:15:00,69.6,68.4,29.94,South,170,0.0,0.0,96,0.00,,,0.00,Wunderground v.1.15,2013-06-17 12:15:00,
2013-06-17 08:20:00,69.8,68.6,29.94,South,170,0.0,0.0,96,0.00,,,0.00,Wunderground v.1.15,2013-06-17 12:20:00,
2013-06-17 08:30:00,70.0,68.5,29.94,South,170,0.0,0.0,95,0.00,,,0.00,Wunderground v.1.15,2013-06-17 12:30:00,
2013-06-17 08:35:00,70.3,68.8,29.94,South,170,0.0,0.0,95,0.00,,,0.00,Wunderground v.1.15,2013-06-17 12:35:00,
2013-06-17 08:45:00,70.7,69.5,29.94,South,170,0.0,0.0,96,0.00,,,0.00,Wunderground v.1.15,2013-06-17 12:45:00,
2013-06-17 08:50:00,70.9,69.4,29.94,South,170,0.0,0.0,95,0.00,,,0.00,Wunderground v.1.15,2013-06-17 12:50:00,
2013-06-17 09:00:00,71.3,69.5,29.94,South,170,0.0,0.0,94,0.00,,,0.00,Wunderground v.1.15,2013-06-17 13:00:00,
2013-06-17 09:05:00,71.6,68.8,29.94,South,170,0.0,0.0,91,0.00,,,0.00,Wunderground v.1.15,2013-06-17 13:05:00,
2013-06-17 09:15:00,72.0,68.6,29.94,South,170,0.0,0.0,89,0.00,,,0.00,Wunderground v.1.15,2013-06-17 13:15:00,
2013-06-17 09:20:00,72.2,68.4,29.94,South,170,0.0,0.0,88,0.00,,,0.00,Wunderground v.1.15,2013-06-17 13:20:00,
2013-06-17 09:30:00,72.9,70.1,29.94,South,170,0.0,0.0,91,0.00,,,0.00,Wunderground v.1.15,2013-06-17 13:30:00,
2013-06-17 09:35:00,73.3,70.8,29.94,South,170,0.0,0.0,92,0.00,,,0.00,Wunderground v.1.15,2013-06-17 13:35:00,
2013-06-17 09:45:00,73.7,70.6,29.93,South,170,0.0,0.0,90,0.00,,,0.00,Wunderground v.1.15,2013-06-17 13:45:00,
2013-06-17 09:55:00,74.1,70.6,29.93,South,170,0.0,0.0,89,0.00,,,0.00,Wunderground v.1.15,2013-06-17 13:55:00,
2013-06-17 10:00:00,74.3,70.8,29.93,South,170,0.0,0.0,89,0.00,,,0.00,Wunderground v.1.15,2013-06-17 14:00:00,
2013-06-17 10:05:00,74.6,70.1,29.93,South,170,0.0,0.0,86,0.00,,,0.00,Wunderground v.1.15,2013-06-17 14:05:00,
2013-06-17 10:15:00,75.2,69.3,29.93,WSW,251,0.0,1.0,82,0.00,,,0.00,Wunderground v.1.15,2013-06-17 14:15:00,
2013-06-17 10:20:00,75.6,70.8,29.92,South,176,0.0,0.0,85,0.00,,,0.00,Wunderground v.1.15,2013-06-17 14:20:00,
2013-06-17 10:30:00,76.0,69.7,29.93,South,172,0.0,0.0,81,0.00,,,0.00,Wunderground v.1.15,2013-06-17 14:30:00,
2013-06-17 10:35:00,76.2,71.4,29.93,South,173,0.0,0.0,85,0.00,,,0.00,Wunderground v.1.15,2013-06-17 14:35:00,
2013-06-17 10:40:00,76.4,72.2,29.93,South,173,0.0,0.0,87,0.00,,,0.00,Wunderground v.1.15,2013-06-17 14:40:00,
2013-06-17 10:50:00,76.4,71.9,29.93,South,172,0.0,0.0,86,0.00,,,0.00,Wunderground v.1.15,2013-06-17 14:50:00,
2013-06-17 11:00:00,76.4,71.9,29.92,South,173,0.0,0.0,86,0.00,,,0.00,Wunderground v.1.15,2013-06-17 15:00:00,
2013-06-17 11:05:00,76.3,71.5,29.92,South,172,0.0,0.0,85,0.00,,,0.00,Wunderground v.1.15,2013-06-17 15:05:00,
2013-06-17 11:15:00,76.5,72.0,29.92,South,172,0.0,0.0,86,0.00,,,0.00,Wunderground v.1.15,2013-06-17 15:15:00,
2013-06-17 11:20:00,76.5,70.9,29.92,South,173,0.0,0.0,83,0.00,,,0.00,Wunderground v.1.15,2013-06-17 15:20:00,
2013-06-17 11:25:00,76.5,70.6,29.92,South,173,0.0,0.0,82,0.00,,,0.00,Wunderground v.1.15,2013-06-17 15:25:00,
2013-06-17 11:35:00,77.0,69.6,29.92,South,172,0.0,0.0,78,0.00,,,0.00,Wunderground v.1.15,2013-06-17 15:35:00,
2013-06-17 11:40:00,77.3,69.9,29.92,SSW,193,0.0,0.0,78,0.00,,,0.00,Wunderground v.1.15,2013-06-17 15:40:00,
2013-06-17 11:50:00,77.9,70.5,29.92,SSW,194,0.0,0.0,78,0.00,,,0.00,Wunderground v.1.15,2013-06-17 15:50:00,
2013-06-17 12:00:00,78.4,70.2,29.92,SW,219,0.0,1.0,76,0.00,,,0.00,Wunderground v.1.15,2013-06-17 16:00:00,
2013-06-17 12:05:00,78.7,69.3,29.92,SW,220,0.0,1.0,73,0.00,,,0.00,Wunderground v.1.15,2013-06-17 16:05:00,
2013-06-17 12:15:00,79.3,70.3,29.92,South,188,0.0,1.0,74,0.00,,,0.00,Wunderground v.1.15,2013-06-17 16:15:00,
2013-06-17 12:25:00,80.1,71.1,29.92,South,188,1.0,1.0,74,0.00,,,0.00,Wunderground v.1.15,2013-06-17 16:25:00,
2013-06-17 12:35:00,81.1,72.0,29.91,SSW,195,0.0,1.0,74,0.00,,,0.00,Wunderground v.1.15,2013-06-17 16:35:00,
2013-06-17 12:40:00,81.5,72.0,29.91,SSW,193,0.0,0.0,73,0.00,,,0.00,Wunderground v.1.15,2013-06-17 16:40:00,
2013-06-17 12:50:00,82.1,73.4,29.91,SSW,193,0.0,0.0,75,0.00,,,0.00,Wunderground v.1.15,2013-06-17 16:50:00,
2013-06-17 12:55:00,82.3,74.4,29.91,SSW,193,0.0,0.0,77,0.00,,,0.00,Wunderground v.1.15,2013-06-17 16:55:00,
2013-06-17 13:05:00,82.5,74.2,29.91,SSW,194,0.0,0.0,76,0.00,,,0.00,Wunderground v.1.15,2013-06-17 17:05:00,
2013-06-17 13:15:00,81.9,74.0,29.91,SSW,194,0.0,1.0,77,0.00,,,0.00,Wunderground v.1.15,2013-06-17 17:15:00,
2013-06-17 13:25:00,82.6,72.7,29.91,SSW,199,1.0,1.0,72,0.00,,,0.00,Wunderground v.1.15,2013-06-17 17:25:00,
2013-06-17 13:30:00,83.1,74.4,29.91,SSW,199,1.0,1.0,75,0.00,,,0.00,Wunderground v.1.15,2013-06-17 17:30:00,
2013-06-17 13:40:00,83.2,75.2,29.91,SSW,199,0.0,1.0,77,0.00,,,0.00,Wunderground v.1.15,2013-06-17 17:40:00,
2013-06-17 13:50:00,82.7,73.6,29.91,SSW,199,0.0,0.0,74,0.00,,,0.00,Wunderground v.1.15,2013-06-17 17:50:00,
2013-06-17 13:55:00,82.1,73.8,29.90,SSW,199,0.0,0.0,76,0.00,,,0.00,Wunderground v.1.15,2013-06-17 17:55:00,
2013-06-17 14:05:00,81.4,74.3,29.90,SSW,199,0.0,0.0,79,0.00,,,0.00,Wunderground v.1.15,2013-06-17 18:05:00,
2013-06-17 14:15:00,81.8,73.5,29.90,SSW,199,0.0,0.0,76,0.00,,,0.00,Wunderground v.1.15,2013-06-17 18:15:00,
2013-06-17 14:25:00,82.9,74.6,29.89,SSW,203,0.0,1.0,76,0.00,,,0.00,Wunderground v.1.15,2013-06-17 18:25:00,
2013-06-17 14:30:00,83.7,74.1,29.89,South,186,1.0,1.0,73,0.00,,,0.00,Wunderground v.1.15,2013-06-17 18:30:00,
2013-06-17 14:40:00,85.1,73.8,29.89,NW,321,0.0,1.0,69,0.00,,,0.00,Wunderground v.1.15,2013-06-17 18:40:00,
2013-06-17 14:45:00,85.9,75.8,29.88,North,359,0.0,1.0,72,0.00,,,0.00,Wunderground v.1.15,2013-06-17 18:45:00,
2013-06-17 14:55:00,86.5,75.1,29.88,WNW,301,0.0,1.0,69,0.00,,,0.00,Wunderground v.1.15,2013-06-17 18:55:00,
2013-06-17 15:00:00,87.1,74.8,29.87,South,186,1.0,2.0,67,0.00,,,0.00,Wunderground v.1.15,2013-06-17 19:00:00,
2013-06-17 15:05:00,87.4,75.1,29.87,South,186,1.0,2.0,67,0.00,,,0.00,Wunderground v.1.15,2013-06-17 19:05:00,
2013-06-17 15:15:00,87.4,74.2,29.87,South,191,0.0,0.0,65,0.00,,,0.00,Wunderground v.1.15,2013-06-17 19:15:00,
2013-06-17 15:25:00,87.3,74.5,29.86,South,191,0.0,1.0,66,0.00,,,0.00,Wunderground v.1.15,2013-06-17 19:25:00,
2013-06-17 15:30:00,86.3,74.9,29.86,SSW,200,0.0,0.0,69,0.00,,,0.00,Wunderground v.1.15,2013-06-17 19:30:00,
2013-06-17 15:40:00,84.2,74.2,29.85,SSW,200,0.0,0.0,72,0.00,,,0.00,Wunderground v.1.15,2013-06-17 19:40:00,
2013-06-17 15:45:00,83.5,74.3,29.85,SSW,200,0.0,0.0,74,0.00,,,0.00,Wunderground v.1.15,2013-06-17 19:45:00,
2013-06-17 15:55:00,81.9,74.4,29.85,SSW,200,0.0,0.0,78,0.00,,,0.00,Wunderground v.1.15,2013-06-17 19:55:00,
2013-06-17 16:05:00,79.9,73.2,29.85,SSW,201,0.0,0.0,80,0.00,,,0.00,Wunderground v.1.15,2013-06-17 20:05:00,
2013-06-17 16:15:00,78.0,73.5,29.87,NE,45,0.0,6.0,86,0.00,,,0.01,Wunderground v.1.15,2013-06-17 20:15:00,
2013-06-17 16:25:00,70.5,66.8,29.89,NW,315,3.0,3.0,88,0.07,,,0.02,Wunderground v.1.15,2013-06-17 20:25:00,
2013-06-17 16:30:00,69.0,66.6,29.90,SSE,164,1.0,1.0,92,0.11,,,0.03,Wunderground v.1.15,2013-06-17 20:30:00,
2013-06-17 16:40:00,65.7,63.0,29.88,SSE,163,3.0,3.0,91,0.12,,,0.05,Wunderground v.1.15,2013-06-17 20:40:00,
2013-06-17 16:45:00,64.6,62.5,29.88,South,172,3.0,3.0,93,0.10,,,0.05,Wunderground v.1.15,2013-06-17 20:45:00,
2013-06-17 16:55:00,64.7,63.5,29.89,SSE,152,1.0,2.0,96,0.12,,,0.07,Wunderground v.1.15,2013-06-17 20:55:00,
2013-06-17 17:00:00,64.9,63.7,29.87,South,187,2.0,3.0,96,0.07,,,0.08,Wunderground v.1.15,2013-06-17 21:00:00,
2013-06-17 17:05:00,65.1,64.2,29.87,South,191,2.0,3.0,97,0.07,,,0.08,Wunderground v.1.15,2013-06-17 21:05:00,
2013-06-17 17:15:00,65.2,64.3,29.88,South,179,1.0,2.0,97,0.07,,,0.10,Wunderground v.1.15,2013-06-17 21:15:00,
2013-06-17 17:25:00,65.4,64.5,29.88,SSE,149,1.0,1.0,97,0.08,,,0.11,Wunderground v.1.15,2013-06-17 21:25:00,
2013-06-17 17:30:00,65.7,64.8,29.88,South,170,0.0,0.0,97,0.07,,,0.11,Wunderground v.1.15,2013-06-17 21:30:00,
2013-06-17 17:35:00,65.9,65.3,29.88,South,171,0.0,0.0,98,0.06,,,0.12,Wunderground v.1.15,2013-06-17 21:35:00,
2013-06-17 17:45:00,66.2,65.6,29.88,South,170,0.0,1.0,98,0.07,,,0.13,Wunderground v.1.15,2013-06-17 21:45:00,
2013-06-17 17:55:00,67.1,66.5,29.88,SSE,162,0.0,1.0,98,0.05,,,0.14,Wunderground v.1.15,2013-06-17 21:55:00,
2013-06-17 18:00:00,67.5,66.9,29.88,SSE,162,0.0,0.0,98,0.05,,,0.14,Wunderground v.1.15,2013-06-17 22:00:00,
2013-06-17 18:05:00,67.9,67.3,29.87,SSE,162,0.0,0.0,98,0.06,,,0.15,Wunderground v.1.15,2013-06-17 22:05:00,
2013-06-17 18:15:00,68.3,67.7,29.87,NW,320,0.0,2.0,98,0.05,,,0.16,Wunderground v.1.15,2013-06-17 22:15:00,
2013-06-17 18:20:00,68.2,67.6,29.88,NW,320,1.0,1.0,98,0.05,,,0.16,Wunderground v.1.15,2013-06-17 22:20:00,
2013-06-17 18:30:00,68.4,67.8,29.88,NW,320,0.0,0.0,98,0.06,,,0.17,Wunderground v.1.15,2013-06-17 22:30:00,
2013-06-17 18:35:00,68.7,68.1,29.87,NW,320,0.0,0.0,98,0.05,,,0.17,Wunderground v.1.15,2013-06-17 22:35:00,
2013-06-17 18:45:00,68.8,67.9,29.87,NW,320,0.0,0.0,97,0.04,,,0.18,Wunderground v.1.15,2013-06-17 22:45:00,
2013-06-17 18:50:00,69.1,68.5,29.87,NW,320,0.0,0.0,98,0.06,,,0.19,Wunderground v.1.15,2013-06-17 22:50:00,
2013-06-17 19:00:00,68.9,68.0,29.86,NW,320,0.0,0.0,97,0.05,,,0.19,Wunderground v.1.15,2013-06-17 23:00:00,
2013-06-17 19:05:00,68.9,68.0,29.87,NW,320,0.0,0.0,97,0.04,,,0.20,Wunderground v.1.15,2013-06-17 23:05:00,
2013-06-17 19:15:00,68.8,67.9,29.87,NW,320,0.0,0.0,97,0.04,,,0.20,Wunderground v.1.15,2013-06-17 23:15:00,
2013-06-17 19:20:00,68.7,67.8,29.87,NW,320,0.0,0.0,97,0.04,,,0.21,Wunderground v.1.15,2013-06-17 23:20:00,
2013-06-17 19:30:00,68.5,67.6,29.88,NW,317,0.0,0.0,97,0.04,,,0.21,Wunderground v.1.15,2013-06-17 23:30:00,
2013-06-17 19:35:00,68.5,67.9,29.88,NW,317,0.0,0.0,98,0.00,,,0.22,Wunderground v.1.15,2013-06-17 23:35:00,
2013-06-17 19:45:00,68.3,67.4,29.88,NW,318,0.0,0.0,97,0.00,,,0.22,Wunderground v.1.15,2013-06-17 23:45:00,
2013-06-17 19:50:00,68.3,67.7,29.89,NW,317,0.0,0.0,98,0.04,,,0.23,Wunderground v.1.15,2013-06-17 23:50:00,
2013-06-17 20:00:00,68.2,67.6,29.89,NW,317,0.0,1.0,98,0.04,,,0.23,Wunderground v.1.15,2013-06-18 00:00:00,
2013-06-17 20:05:00,68.1,67.5,29.89,NW,317,0.0,1.0,98,0.04,,,0.23,Wunderground v.1.15,2013-06-18 00:05:00,
2013-06-17 20:15:00,68.0,67.4,29.88,South,174,0.0,0.0,98,0.00,,,0.24,Wunderground v.1.15,2013-06-18 00:15:00,
2013-06-17 20:20:00,67.9,67.3,29.89,South,174,0.0,0.0,98,0.00,,,0.24,Wunderground v.1.15,2013-06-18 00:20:00,
2013-06-17 20:25:00,67.8,67.2,29.88,South,174,0.0,0.0,98,0.04,,,0.25,Wunderground v.1.15,2013-06-18 00:25:00,
2013-06-17 20:35:00,67.9,67.3,29.89,South,174,0.0,0.0,98,0.04,,,0.25,Wunderground v.1.15,2013-06-18 00:35:00,
2013-06-17 20:45:00,67.8,67.2,29.89,South,174,0.0,0.0,98,0.00,,,0.26,Wunderground v.1.15,2013-06-18 00:45:00,
2013-06-17 20:50:00,67.6,67.0,29.89,South,174,0.0,0.0,98,0.00,,,0.26,Wunderground v.1.15,2013-06-18 00:50:00,
2013-06-17 21:00:00,67.0,66.1,29.88,South,174,0.0,0.0,97,0.04,,,0.26,Wunderground v.1.15,2013-06-18 01:00:00,
2013-06-17 21:05:00,66.7,65.8,29.88,South,174,0.0,0.0,97,0.04,,,0.27,Wunderground v.1.15,2013-06-18 01:05:00,
2013-06-17 21:15:00,66.6,65.7,29.88,South,174,0.0,0.0,97,0.04,,,0.27,Wunderground v.1.15,2013-06-18 01:15:00,
2013-06-17 21:20:00,66.5,65.9,29.89,South,174,0.0,0.0,98,0.00,,,0.27,Wunderground v.1.15,2013-06-18 01:20:00,
2013-06-17 21:25:00,66.5,65.6,29.89,South,174,0.0,0.0,97,0.00,,,0.28,Wunderground v.1.15,2013-06-18 01:25:00,
2013-06-17 21:35:00,66.6,66.0,29.89,South,174,0.0,0.0,98,0.00,,,0.28,Wunderground v.1.15,2013-06-18 01:35:00,
2013-06-17 21:40:00,66.7,66.1,29.89,South,174,0.0,0.0,98,0.00,,,0.29,Wunderground v.1.15,2013-06-18 01:40:00,
2013-06-17 21:50:00,66.8,66.2,29.89,South,174,0.0,0.0,98,0.00,,,0.29,Wunderground v.1.15,2013-06-18 01:50:00,
2013-06-17 22:00:00,66.6,66.0,29.89,South,174,0.0,0.0,98,0.00,,,0.29,Wunderground v.1.15,2013-06-18 02:00:00,
2013-06-17 22:05:00,66.6,66.0,29.89,South,174,0.0,0.0,98,0.00,,,0.30,Wunderground v.1.15,2013-06-18 02:05:00,
2013-06-17 22:15:00,66.8,66.5,29.91,South,174,0.0,0.0,99,0.00,,,0.30,Wunderground v.1.15,2013-06-18 02:15:00,
2013-06-17 22:25:00,66.9,66.6,29.91,South,174,0.0,1.0,99,0.00,,,0.31,Wunderground v.1.15,2013-06-18 02:25:00,
2013-06-17 22:30:00,66.9,66.6,29.92,South,174,0.0,0.0,99,0.00,,,0.31,Wunderground v.1.15,2013-06-18 02:30:00,
2013-06-17 22:40:00,66.9,66.6,29.91,South,172,0.0,2.0,99,0.00,,,0.31,Wunderground v.1.15,2013-06-18 02:40:00,
2013-06-17 22:50:00,67.0,66.7,29.89,South,185,2.0,2.0,99,0.00,,,0.32,Wunderground v.1.15,2013-06-18 02:50:00,
2013-06-17 22:55:00,66.9,66.6,29.89,South,185,1.0,2.0,99,0.00,,,0.32,Wunderground v.1.15,2013-06-18 02:55:00,
2013-06-17 23:05:00,66.9,66.6,29.91,NW,320,1.0,2.0,99,0.00,,,0.32,Wunderground v.1.15,2013-06-18 03:05:00,
2013-06-17 23:15:00,66.5,65.9,29.91,NNW,328,1.0,1.0,98,0.00,,,0.33,Wunderground v.1.15,2013-06-18 03:15:00,
2013-06-17 23:25:00,65.8,64.9,29.91,East,101,0.0,0.0,97,0.00,,,0.33,Wunderground v.1.15,2013-06-18 03:25:00,
2013-06-17 23:30:00,65.7,65.1,29.90,East,101,0.0,0.0,98,0.00,,,0.33,Wunderground v.1.15,2013-06-18 03:30:00,
2013-06-17 23:40:00,65.6,65.0,29.90,SSE,166,0.0,1.0,98,0.00,,,0.33,Wunderground v.1.15,2013-06-18 03:40:00,
2013-06-17 23:45:00,65.4,64.8,29.90,SSE,161,0.0,1.0,98,0.00,,,0.33,Wunderground v.1.15,2013-06-18 03:45:00,
2013-06-17 23:55:00,64.8,63.9,29.90,SW,221,0.0,1.0,97,0.00,,,0.34,Wunderground v.1.15,2013-06-18 03:55:00,